sat.trackr.live / text

‹ back to catalog

STARLINK-35745

NORAD 66271 · 2025-247G

PAYLOAD ACTIVE UNKNOWN

§ Identity

Operator
Country
US
Launch date
2025-10-31
Launch site
AFWTR
Launch vehicle
Mass (kg)
RCS (m²)

Purposes: comms

External: N2YO · Heavens-Above · Gunter

§ Orbital elements

Epoch: 2026-09-20T12:06:35.959104Z

Period
93.85 min
Inclination
53.1596°
Eccentricity
0.0001532
Mean motion
15.34406148 rev/d
Perigee alt
461.6 km
Apogee alt
463.7 km
Semi-major
6,840.8 km
B*
6.2553e-4
RAAN
3.5054°
Arg perigee
39.3963°
Mean anomaly
320.7151°
Rev number
5,095

§ Raw data

STARLINK-357451 66271U 25247G   26263.50458286  .00020821  00000+0  62553-3 0  99952 66271  53.1596   3.5054 0001532  39.3963 320.7151 15.34406148 50958

JSON: /api/v1/satellites/66271 · /tle

For live sub-satellite position, see the globe view (requires WebGL).

§ Visibility from observer

Set your observer location to see the next 7 days of passes ≥ 10°. The values pass through the URL so the page stays shareable.

No JS? Fill the form by hand. The geolocation button needs JavaScript.